Weather History for Iliamna, AK

Change the Weather History Date:

Tuesday, December 17, 2013

  Actual Average Record
Temperature  
Mean Temperature 0 °F -  
Max Temperature 5 °F 26 °F 44 °F (1960)
Min Temperature -5 °F 14 °F -29 °F (1942)
Degree Days  
Heating Degree Days 65    
Moisture  
Dew Point -5 °F    
Average Humidity 77    
Maximum Humidity 92    
Minimum Humidity 59    
Precipitation  
Precipitation 0.00 in - - ()
Sea Level Pressure  
Sea Level Pressure 30.38 in    
Wind  
Wind Speed 9 mph (NNW)    
Max Wind Speed 15 mph    
Max Gust Speed -    
Visibility 10 miles    
Events Snow    
Averages and records for this station are not official NWS values.
T = Trace of Precipitation, MM = Missing Value Source: NWS Daily Summary

Daily Weather History Graph

Daily Weather History Graph

Search for Another Location

Airport:

Trip Planner

Search our weather history database for the weather conditions in past years. The results will help you decide how hot, cold, wet, or windy it might be!

Date:

Astronomy

Dec. 17, 2013 Rise Set
Actual Time 10:16 AM AKST 4:15 PM AKST
Civil Twilight 9:19 AM AKST 5:12 PM AKST
Nautical Twilight 8:23 AM AKST 6:08 PM AKST
Astronomical Twilight 7:32 AM AKST 6:59 PM AKST
Moon 5:24 PM AKST (12/17) 10:01 AM AKST (12/17)
Length of Visible Light 7h 52m
Length of Day
5h 58m
Full, 100% of the Moon is Illuminated
Dec 17
Full
Dec 25
Last Quarter
Jan 1
New
Jan 7
First Quarter
Jan 15
Full

Hourly Weather History & Observations

Time (AKST) Temp. Windchill Dew Point Humidity Pressure Visibility Wind Dir Wind Speed Gust Speed Precip Events Conditions
12:53 AM -4.0 °F -22.1 °F -11.0 °F 72% 30.32 in 10.0 mi NNW 11.5 mph - N/A   Clear
1:53 AM -4.0 °F -21.2 °F -11.0 °F 72% 30.33 in 10.0 mi North 10.4 mph - N/A   Clear
3:53 AM -2.9 °F -15.0 °F -11.0 °F 68% 30.34 in 10.0 mi NNW 5.8 mph - N/A   Clear
4:53 AM -2.9 °F -13.3 °F -9.9 °F 72% 30.34 in 10.0 mi NNW 4.6 mph - N/A   Clear
5:53 AM -2.9 °F -13.3 °F -9.9 °F 72% 30.35 in 10.0 mi NW 4.6 mph - N/A   Clear
6:53 AM -2.9 °F -16.5 °F -9.0 °F 75% 30.36 in 10.0 mi North 6.9 mph - N/A   Clear
7:53 AM -2.0 °F -15.4 °F -8.0 °F 76% 30.36 in 10.0 mi North 6.9 mph - N/A   Clear
8:53 AM -2.0 °F -13.9 °F -8.0 °F 76% 30.37 in 10.0 mi NNW 5.8 mph - N/A   Clear
9:53 AM -2.0 °F -17.7 °F -7.1 °F 79% 30.39 in 10.0 mi NNW 9.2 mph - N/A   Clear
10:53 AM -0.9 °F -15.3 °F -7.1 °F 75% 30.39 in 10.0 mi NW 8.1 mph - N/A   Clear
11:53 AM 1.9 °F -16.9 °F -5.1 °F 72% 30.40 in 10.0 mi NNW 15.0 mph - N/A   Clear
12:53 PM 3.9 °F -8.2 °F -4.0 °F 70% 30.41 in 10.0 mi North 6.9 mph - N/A   Clear
1:53 PM 5.0 °F -8.1 °F -2.9 °F 70% 30.40 in 10.0 mi North 8.1 mph - N/A   Clear
2:53 PM 3.9 °F -10.4 °F -2.0 °F 76% 30.40 in 10.0 mi North 9.2 mph - N/A   Clear
3:53 PM 3.0 °F -10.5 °F -2.9 °F 76% 30.40 in 10.0 mi NNW 8.1 mph - N/A   Clear
4:53 PM 1.9 °F -13.8 °F -2.9 °F 80% 30.40 in 10.0 mi North 10.4 mph - N/A   Clear
5:53 PM 1.9 °F -12.9 °F -2.9 °F 80% 30.40 in 10.0 mi North 9.2 mph - N/A   Clear
6:53 PM 1.9 °F -12.9 °F -2.0 °F 83% 30.39 in 10.0 mi North 9.2 mph - N/A   Clear
7:53 PM 1.9 °F -12.9 °F -2.0 °F 83% 30.40 in 10.0 mi NNW 9.2 mph - N/A   Clear
8:53 PM 1.9 °F -14.7 °F -0.9 °F 88% 30.41 in 10.0 mi NNW 11.5 mph - N/A   Clear
9:53 PM 3.0 °F -13.3 °F 1.0 °F 91% 30.38 in 10.0 mi North 11.5 mph - N/A   Mostly Cloudy
10:13 PM 3.2 °F -12.2 °F 1.4 °F 92% 30.37 in 10.0 mi North 10.4 mph - N/A   Mostly Cloudy
10:21 PM 3.2 °F -12.2 °F 1.4 °F 92% 30.37 in 10.0 mi North 10.4 mph - N/A   Overcast
10:53 PM 3.9 °F -12.2 °F 1.9 °F 91% 30.39 in 10.0 mi North 11.5 mph - N/A   Overcast
11:53 PM 3.9 °F -13.7 °F 1.9 °F 91% 30.38 in 8.0 mi North 13.8 mph - 0.00 in Snow Light Snow